Home   Weather   Coeur d'Alene   Past weeks

Flag for USA Past Weather in Coeur d'Alene, Idaho, USA — Yesterday and Last 2 Weeks

Now
46 °F

Light rain. Cloudy.


Feels Like: 43 °F
Forecast: 41 / 51 °F
Wind: 7 mph from South

Location: Coeur d'Alene Weather Reporting System

Current Time: Apr 26, 2017 at 11:17:44 am

Latest Report: Apr 26, 2017 at 10:16 am


Visibility: 10 mi

Pressure: 29.71 "Hg (27.44 "Hg at 655m altitude)

Humidity: 87%

Dew Point: 43 °F

Location of Coeur d'AleneLocation

Past Weather in Coeur d'Alene — Graph

°F

Coeur d'Alene Temperature Yesterday

Maximum temperature yesterday: 52 °F (at 2:56 pm)
Minimum temperature yesterday: 40 °F (at 11:56 pm)
Average temperature yesterday: 45 °F

High & Low Weather Summary for the Past Weeks

 TemperatureHumidityPressure
High65 °F (Apr 22, 1:56 pm)100% (Apr 16, 4:56 am)30.45 "Hg (Apr 16, 4:56 am)
Low25 °F (Apr 16, 3:56 am)27% (Apr 22, 12:56 pm)29.64 "Hg (Apr 13, 3:31 am)
Average45 °F76%30.02 "Hg
* Reported Apr 11 9:56 am — Apr 26 9:56 am, Coeur d'Alene, Weather by CustomWeather, © 2017

Note: Actual official high and low records may vary slightly from our data, if they occured in-between our weather recording intervals... More about our weather records

Advertising

Coeur d'Alene Weather History for the Previous 24 Hours

Scroll right to see more
 ConditionsComfort  
Time TempWeatherWind HumidityBarometerVisibility
9:56 am
Wed, Apr 26
44 °FLight rain. Mostly cloudy.7 mph96%29.78 "Hg10 mi
8:56 am43 °FLight rain. Overcast.7 mph93%29.78 "Hg10 mi
7:56 am42 °FLight rain. Overcast.8 mph96%29.78 "Hg10 mi
6:56 am42 °FLight rain. Overcast.8 mph92%29.78 "Hg10 mi
5:56 am42 °FLight rain. Mostly cloudy.6 mph92%29.79 "Hg9 mi
4:56 am42 °FLight rain. Mostly cloudy.7 mph96%29.80 "Hg10 mi
3:56 am42 °FLight rain. Mostly cloudy.6 mph92%29.82 "Hg9 mi
2:56 am42 °FLight rain. Overcast.5 mph92%29.83 "Hg10 mi
2:19 am43 °FRain. Overcast.6 mph87%29.78 "Hg10 mi
1:56 am42 °FLight rain. Overcast.8 mph92%29.85 "Hg10 mi
1:21 am41 °FMostly cloudy.No wind93%29.79 "Hg10 mi
12:56 am40 °FMostly cloudy.6 mph97%29.87 "Hg9 mi
12:32 am41 °FMostly cloudy.No wind93%29.80 "Hg10 mi
11:56 pm
Tue, Apr 25
40 °FPassing clouds.3 mph97%29.88 "Hg10 mi
10:56 pm41 °FPassing clouds.5 mph93%29.89 "Hg10 mi
9:56 pm41 °FPassing clouds.7 mph93%29.89 "Hg10 mi
8:56 pm43 °FPassing clouds.6 mph89%29.90 "Hg10 mi
7:56 pm46 °FOvercast.6 mph89%29.89 "Hg10 mi
6:56 pm48 °FLight rain. Mostly cloudy.3 mph80%29.88 "Hg10 mi
5:56 pm48 °FMostly cloudy.3 mph77%29.90 "Hg10 mi
4:56 pm49 °FMostly cloudy.6 mph69%29.90 "Hg10 mi
3:56 pm48 °FBroken clouds.20 mph77%29.91 "Hg10 mi
2:56 pm52 °FPartly sunny.10 mph69%29.91 "Hg10 mi
1:56 pm51 °FMostly cloudy.5 mph71%29.94 "Hg10 mi
12:56 pm50 °FMostly cloudy.10 mph74%29.97 "Hg10 mi
11:56 am47 °FMostly cloudy.14 mph80%29.98 "Hg10 mi
Weather by CustomWeather, © 2017

See weather overviewHow to use our weather pages